EHI
0 2 6 10 9 4 1 0 0 0 0 0 0 0 0 0 1 2 7 18 27 27 22 20 18 16 14 11 9 9 8 6 4 4 4 3 2 1 0 0 0 1 2 3 3 3 4 4 4
1 3 5 7 5 2 0 0 0 0 0 0 0 0 0 0 1 4 9 18 25 25 22 21 19 15 13 11 9 9 9 7 5 4 4 3 1 0 0 0 0 0 1 2 3 3 4 5 5
1 2 3 3 2 1 0 0 0 0 0 0 0 0 0 1 2 6 11 17 23 25 24 23 20 16 12 10 8 9 9 8 6 5 4 1 0 0 1 0 0 0 0 1 2 3 3 4 6
1 1 1 2 1 0 0 0 0 0 0 0 1 2 3 3 6 9 11 15 21 25 27 26 22 17 13 11 9 8 8 7 6 5 3 1 0 0 0 0 1 1 1 0 1 2 3 4 5
2 1 1 1 0 0 0 0 0 1 0 1 5 8 7 7 11 11 11 15 20 25 28 27 24 19 15 11 9 8 7 6 4 4 3 1 0 0 0 0 1 2 1 0 1 2 3 4 4
1 1 0 0 0 0 0 0 0 1 1 1 8 14 12 10 12 11 11 15 20 24 26 26 25 22 17 13 10 9 8 5 3 3 2 1 0 0 0 0 1 1 1 1 2 4 5 5 6
0 0 0 0 0 0 0 1 1 2 2 2 8 15 16 12 10 9 10 14 19 22 22 23 23 21 19 16 14 13 10 5 3 3 2 1 0 1 1 1 1 2 2 3 5 7 8 9 9
0 0 0 0 0 0 1 2 2 3 3 4 8 16 20 15 9 8 9 13 19 22 20 20 20 19 17 16 15 14 10 7 4 4 3 1 1 2 3 4 6 6 6 6 7 8 10 11 12
0 0 0 0 0 0 1 2 2 2 3 6 13 22 23 15 8 7 8 11 15 18 17 17 18 18 14 13 13 12 10 7 6 5 4 3 3 4 5 8 11 12 11 10 10 11 11 11 12
0 0 0 0 0 1 2 2 2 2 4 8 17 24 20 11 7 6 7 8 10 13 14 14 17 17 14 12 12 12 10 9 8 7 6 5 5 5 6 9 14 15 14 14 15 15 12 11 11
0 0 0 0 0 1 3 3 3 4 5 9 16 18 13 8 5 6 7 8 8 9 11 12 14 16 15 13 13 13 12 11 10 9 9 8 7 8 9 10 13 14 14 14 17 17 13 11 12
0 0 0 0 1 2 3 3 3 5 7 10 14 12 8 6 5 7 9 10 9 9 10 12 14 18 19 18 15 13 13 13 12 12 11 10 9 9 9 10 12 11 10 10 12 13 10 9 9
0 0 0 0 1 2 2 1 2 5 7 9 12 11 7 6 7 9 11 14 14 13 13 15 18 23 26 23 19 16 16 15 14 14 13 11 9 8 7 9 11 9 7 7 7 7 6 6 5
0 0 0 1 2 2 1 0 1 3 5 8 13 13 10 9 10 10 12 17 21 22 21 21 24 28 30 26 21 19 18 17 16 15 14 12 10 10 10 10 10 8 6 5 4 3 4 5 4
0 0 0 1 1 2 2 1 1 3 4 7 14 17 14 12 11 10 12 18 26 31 31 28 27 29 31 27 23 19 17 17 18 17 16 15 15 15 14 11 9 7 7 5 4 5 5 5 4
0 0 0 1 1 1 3 3 3 3 4 7 14 19 18 14 10 10 14 21 30 39 42 35 28 30 32 29 24 19 16 18 21 21 20 19 19 18 15 12 9 8 7 6 7 8 8 6 5
0 0 0 1 0 1 2 4 5 5 5 8 14 20 21 17 14 15 18 25 35 47 50 42 35 38 39 33 26 21 19 21 25 26 25 24 23 19 14 11 12 11 9 8 8 9 9 7 5
0 0 0 0 0 1 2 5 7 7 7 9 15 20 23 22 21 22 25 31 40 49 53 50 46 46 45 39 32 26 25 27 29 30 30 29 26 22 14 12 15 14 13 11 9 9 10 8 6
0 0 0 0 0 2 3 4 7 7 7 10 16 21 25 27 28 28 31 37 44 50 54 54 51 50 48 44 39 34 32 32 32 31 31 30 28 22 17 16 18 16 15 13 11 11 11 8 7
0 0 0 0 0 1 2 3 4 5 6 9 16 22 25 27 29 30 33 39 46 51 52 52 53 52 51 49 44 39 36 34 31 30 32 31 28 24 20 20 19 16 14 12 12 13 13 8 6
0 0 0 0 0 1 1 1 2 4 5 8 14 19 23 25 26 28 31 36 42 47 47 47 49 51 51 49 44 40 38 36 31 30 32 32 30 26 22 21 20 16 13 12 12 14 13 10 8
0 0 0 0 0 0 0 1 3 5 6 8 11 14 19 23 24 25 28 32 37 40 42 43 44 46 47 45 42 41 40 37 35 34 34 34 34 31 27 25 23 18 13 11 11 11 12 11 9
0 0 0 0 0 0 0 1 3 5 6 7 10 13 16 20 21 23 27 31 34 37 40 42 42 41 42 41 42 42 39 38 38 38 38 37 35 33 31 29 26 21 16 13 9 8 9 9 8
0 0 0 0 0 0 0 0 2 3 4 6 10 14 15 16 19 22 26 32 34 36 39 43 42 40 39 40 41 41 39 37 38 40 39 37 35 33 32 29 26 23 19 15 11 9 8 7 6
0 0 0 0 0 0 0 2 3 2 3 6 11 15 16 17 19 22 27 32 34 36 38 41 42 40 39 39 40 41 40 37 37 38 38 36 36 36 33 30 27 25 21 17 13 11 9 8 7
0 0 0 0 0 0 1 4 5 3 4 7 12 16 20 22 24 26 29 31 33 36 38 41 41 41 40 40 40 39 38 36 35 35 36 36 37 39 38 35 31 26 21 17 14 12 10 10 9
0 0 0 0 0 0 1 4 5 5 6 8 11 16 23 29 30 30 31 31 31 36 40 41 41 41 40 39 37 35 35 34 33 34 35 36 36 37 39 39 34 28 22 17 14 12 11 11 10
0 0 0 0 0 0 0 1 3 5 7 8 9 14 23 31 33 32 31 30 31 37 41 42 41 41 40 37 34 33 33 32 30 32 35 36 34 32 35 37 33 27 22 17 14 13 12 11 10
0 0 0 0 0 0 0 0 2 7 10 10 11 17 23 29 33 32 29 28 30 35 40 42 40 39 38 36 35 34 33 31 29 30 34 35 33 29 29 31 29 24 20 16 14 12 11 9 7
0 0 0 0 0 0 0 1 4 9 12 12 14 20 25 29 33 32 28 27 29 34 39 41 40 37 36 36 37 36 34 31 30 30 32 34 31 26 25 27 27 22 17 15 14 11 8 6 5
Wind_Speed
8 11 9 7 6 4 3 7 11 13 14 13 12 13 17 15 12 10 10 15 17 17 15 14 12 12 11 11 10 10 10 10 10 9 9 9 9 9 8 8 8 8 8 8 8 8 8 8 7
9 12 9 6 5 2 5 8 12 13 12 10 12 14 16 15 14 12 11 14 17 17 14 13 13 12 11 10 10 10 10 9 9 9 9 9 8 8 7 7 7 7 8 8 8 8 7 7 7
12 15 8 5 3 1 6 8 10 11 10 9 12 14 12 11 12 10 11 14 16 16 16 14 13 12 11 10 9 9 9 9 8 8 8 8 8 8 7 8 8 7 8 8 8 8 7 6 6
9 9 7 5 1 2 7 8 8 9 9 9 11 12 11 10 11 12 13 13 16 16 17 14 13 12 11 10 9 9 9 8 8 8 8 8 8 7 8 8 8 8 8 8 8 7 6 5 5
10 7 7 6 1 4 8 8 7 8 8 9 13 14 12 12 13 14 12 12 14 16 16 15 13 12 11 10 10 9 9 8 7 7 8 7 7 6 7 8 8 8 8 7 7 6 5 5 5
8 7 7 5 1 5 8 7 7 8 7 8 10 13 11 11 11 10 12 13 14 16 16 14 14 13 11 11 10 9 9 7 7 7 7 7 6 6 5 6 7 7 7 7 7 6 6 5 4
9 9 8 7 3 4 6 6 6 7 7 7 8 12 10 11 10 9 10 12 12 15 15 13 12 11 11 11 10 9 8 7 6 6 6 6 6 6 6 6 7 7 6 6 6 6 5 5 4
9 8 9 6 3 3 6 6 7 7 8 7 7 8 10 11 10 9 10 10 10 12 13 12 12 11 10 10 10 10 8 7 6 5 5 5 5 5 6 6 7 7 6 6 5 5 4 4 4
11 8 7 6 3 2 5 5 6 6 7 8 10 11 14 14 12 9 9 9 9 9 10 10 10 10 9 10 10 9 9 7 6 5 5 5 3 4 5 6 8 7 7 6 6 5 5 4 5
7 6 7 5 5 4 5 4 4 3 6 8 11 13 15 13 11 10 9 9 10 9 9 7 8 7 7 7 7 5 6 6 4 3 4 3 1 2 5 8 8 7 7 6 6 6 5 5 3
8 7 7 4 4 4 3 2 2 2 4 7 10 11 11 11 9 8 8 8 9 8 8 7 6 6 5 5 5 2 3 3 3 3 2 1 1 2 3 3 4 4 5 4 4 4 2 2 2
9 7 6 4 3 3 3 2 2 3 4 7 11 12 11 10 8 7 7 8 7 7 7 7 6 6 4 4 3 3 2 2 2 2 1 1 1 1 1 2 2 2 1 1 1 1 1 1 1
10 9 6 5 4 3 3 2 2 2 5 8 10 10 10 9 8 7 7 8 7 6 6 7 6 6 4 3 2 3 3 3 3 2 1 1 1 1 2 2 1 1 1 1 1 1 1 2 2
9 8 8 6 6 5 4 4 4 3 6 8 10 9 9 8 8 7 7 8 7 6 5 5 6 7 5 3 2 2 3 3 3 2 2 1 1 2 2 2 1 1 2 2 2 1 1 2 2
9 9 9 8 8 7 5 5 6 5 6 8 9 9 8 7 8 7 5 7 8 6 5 5 6 6 5 4 3 2 2 3 2 3 3 2 2 2 1 1 1 1 1 2 1 1 1 0 1
10 11 11 11 10 8 8 7 6 5 5 6 7 8 8 7 7 7 6 7 7 7 6 4 5 7 5 3 2 2 2 2 3 3 3 2 2 2 1 1 1 1 1 1 1 1 1 1 1
11 12 12 12 10 9 9 7 6 5 5 5 7 8 7 7 6 6 7 8 7 6 6 4 4 5 6 4 3 2 2 2 3 3 3 2 2 2 1 1 1 0 1 1 1 2 1 1 2
9 11 12 12 8 7 7 8 5 5 7 6 7 8 8 7 6 6 6 8 8 7 6 5 4 5 5 4 3 1 2 2 2 3 3 3 1 2 1 1 2 0 1 1 2 2 1 1 1
13 13 12 10 6 6 8 8 6 6 6 7 7 8 8 8 8 7 7 7 8 7 6 5 5 4 4 3 3 3 2 2 2 2 4 3 2 2 1 1 1 0 1 1 1 1 0 0 0
14 14 14 11 6 6 8 8 6 6 7 6 6 7 8 9 8 8 7 7 7 7 6 5 5 5 4 3 2 2 3 2 3 2 3 3 2 1 2 1 1 1 1 2 1 1 1 1 0
13 13 12 11 10 9 9 10 9 9 9 6 5 6 7 8 8 9 8 8 7 7 6 5 4 4 3 3 2 2 2 2 2 3 3 2 2 2 1 1 1 1 1 1 0 1 1 1 1
12 11 12 13 12 10 10 10 9 9 9 8 8 7 8 8 7 8 8 7 7 7 7 5 5 4 3 3 3 3 3 3 3 2 3 3 3 3 2 2 1 1 1 1 1 1 1 1 1
13 12 12 13 13 14 12 12 8 9 9 10 10 8 8 9 8 8 8 7 7 7 7 7 6 5 4 2 2 3 2 2 2 2 3 3 2 3 3 2 2 1 0 1 1 1 1 1 1
11 13 14 13 11 14 14 13 9 6 9 10 10 9 8 9 8 7 7 7 6 6 6 7 6 5 4 3 2 3 3 2 3 3 3 3 3 2 3 3 2 1 1 1 0 0 0 1 2
10 10 9 10 11 12 11 11 6 5 6 6 9 8 7 6 7 7 7 6 5 6 6 7 7 5 4 4 3 2 2 3 3 3 3 3 3 2 2 2 2 1 1 1 1 1 0 0 1
10 11 10 10 11 9 8 8 4 3 3 4 6 7 6 6 6 6 6 5 4 5 6 6 7 6 5 4 3 2 2 2 2 3 2 3 2 3 3 3 3 2 2 2 1 1 2 1 1
12 11 12 13 16 15 9 5 3 4 4 4 5 6 5 3 5 5 5 4 4 4 4 5 6 6 5 4 4 3 3 2 2 2 2 1 2 3 4 3 3 3 3 2 2 2 2 2 2
12 12 9 10 11 13 11 8 2 3 2 3 4 4 5 3 3 5 5 4 4 4 4 4 6 6 5 5 4 3 3 2 2 2 2 2 2 2 3 3 3 3 3 3 3 2 2 2 2
11 11 11 9 10 12 12 5 3 4 3 1 2 4 5 3 3 4 4 4 3 4 4 4 5 5 4 4 3 3 3 3 3 2 2 2 2 3 3 3 3 3 3 3 2 2 3 3 2
11 11 10 9 10 11 11 4 5 4 3 4 4 4 3 3 4 4 4 4 4 3 3 3 4 4 3 3 3 2 2 3 3 2 2 3 3 3 3 3 3 4 3 3 3 4 3 3 3
Wind_Direction
239 241 232 249 251 255 62 57 71 69 65 62 58 62 63 53 59 81 99 103 108 112 117 114 109 106 103 98 94 94 93 90 85 81 79 79 79 77 78 80 87 96 99 100 103 112 110 110 107
261 255 244 247 264 315 60 66 65 70 72 77 73 72 74 70 81 95 104 109 114 117 119 114 114 109 106 101 98 97 98 95 90 85 82 82 80 77 79 86 93 98 102 105 109 109 105 106 109
263 259 262 249 265 69 67 72 78 80 80 74 77 68 62 72 87 103 117 120 118 117 115 116 118 113 110 105 103 101 100 97 94 91 87 83 80 78 81 93 97 97 99 102 107 111 111 111 112
260 249 238 254 284 107 89 75 77 78 79 77 84 84 75 67 91 113 125 122 119 118 117 121 122 118 115 111 107 104 102 99 98 95 91 86 82 79 82 94 96 99 101 104 107 109 116 121 121
247 263 258 269 245 85 80 83 81 73 71 68 84 93 89 81 96 115 121 117 118 118 120 126 127 123 120 116 111 107 102 101 100 97 93 91 88 84 83 88 93 99 103 107 110 111 117 121 126
266 267 271 268 243 88 78 76 76 77 75 83 99 103 96 105 109 121 122 120 118 120 121 128 131 128 125 121 116 112 107 104 103 102 101 99 97 95 93 92 95 96 99 104 108 109 113 120 130
266 284 280 283 303 85 87 84 76 84 74 72 89 100 110 117 119 122 119 117 120 121 127 135 137 134 132 128 124 122 119 116 111 112 113 115 115 116 114 110 104 100 101 104 111 117 122 133 150
270 284 290 284 290 68 85 85 79 76 72 61 67 102 126 130 134 133 126 122 122 122 127 136 140 142 144 139 136 134 133 132 130 132 137 143 143 143 136 129 122 121 125 127 129 136 149 166 189
268 274 280 284 289 72 79 85 92 86 89 73 64 91 123 136 139 139 133 128 124 122 127 134 137 145 148 142 141 148 150 154 150 157 165 175 178 164 153 132 135 141 148 152 159 172 181 195 219
243 260 269 294 339 34 65 56 89 116 108 95 88 103 123 139 146 148 142 136 131 131 129 131 132 135 138 135 138 158 155 153 169 156 167 188 186 136 126 129 141 155 165 174 188 196 201 211 218
248 251 274 289 331 358 23 33 38 105 104 120 124 129 135 143 151 148 140 136 133 134 132 131 125 124 124 122 138 144 133 140 155 135 153 157 136 124 128 139 148 163 174 194 188 195 214 212 218
260 259 262 292 337 323 314 338 16 52 97 111 130 136 140 153 152 145 135 131 134 134 134 128 129 124 120 118 127 126 122 128 118 116 142 125 127 97 109 118 131 156 161 158 126 153 211 257 289
248 258 260 271 273 267 274 298 318 103 115 117 130 141 153 160 149 145 139 135 131 130 132 133 132 119 113 102 116 127 115 116 115 112 113 91 115 105 91 75 68 61 77 97 69 56 33 3 4
263 263 260 248 248 241 241 251 243 170 147 137 143 154 158 151 146 145 145 140 135 129 129 124 126 121 120 120 113 110 121 114 120 119 116 101 71 76 81 84 67 63 63 53 55 51 41 14 8
264 263 264 249 238 232 228 243 238 194 159 153 156 157 153 155 144 145 148 140 136 132 123 120 131 126 129 135 146 134 131 130 119 108 106 112 93 86 94 102 91 56 71 66 67 41 50 39 33
260 249 247 243 231 226 228 240 225 173 169 166 162 158 157 151 149 150 150 136 126 131 127 134 142 135 135 136 138 131 132 124 118 114 116 115 106 102 77 100 94 61 95 93 104 60 38 31 18
248 245 246 243 222 220 222 220 214 171 196 183 165 159 157 156 155 149 145 133 123 121 132 138 131 137 146 148 141 139 108 85 96 101 104 111 117 101 94 95 85 67 77 63 57 74 43 33 16
254 254 247 248 230 222 230 229 210 197 205 198 173 162 161 160 155 141 130 130 126 122 130 138 137 132 141 144 149 143 123 113 99 102 101 108 109 98 59 122 112 49 82 62 47 56 47 9 346
265 274 276 269 242 238 241 243 224 219 216 208 184 167 164 160 156 144 136 128 128 125 126 142 147 143 147 150 162 163 154 145 132 126 113 119 122 114 107 69 124 80 76 76 70 63 120 263 308
255 265 271 277 264 254 254 252 234 230 232 217 193 168 165 158 154 146 145 141 137 139 141 143 144 153 159 150 163 160 149 150 136 121 121 133 130 124 149 79 126 112 97 80 51 14 2 308 294
253 258 266 273 273 256 261 253 234 224 231 208 189 181 163 159 154 149 155 154 152 147 147 145 147 151 157 151 158 159 148 157 140 135 132 150 145 149 92 111 41 89 120 117 118 9 336 300 305
263 262 270 274 274 268 252 258 230 214 209 197 190 183 165 154 157 158 158 157 156 150 148 139 137 145 155 163 171 173 173 170 153 150 148 160 163 161 149 132 103 61 78 115 162 96 316 311 309
267 279 275 274 275 276 265 262 244 202 209 192 186 182 170 157 163 163 165 159 154 150 149 144 140 138 146 164 172 181 171 156 145 142 148 157 169 174 153 142 134 138 133 122 122 56 355 323 335
270 275 269 262 261 259 257 260 252 216 216 197 181 175 165 162 161 152 158 146 148 155 150 145 141 143 149 157 158 175 176 165 159 170 164 174 170 171 157 149 142 154 163 124 161 157 155 345 348
255 265 266 253 240 251 248 249 245 199 215 182 159 156 157 154 149 149 151 155 156 158 154 147 146 149 157 163 155 154 183 185 183 187 187 186 170 163 165 164 157 170 181 190 175 192 213 263 313
252 254 262 272 274 276 256 242 235 144 134 135 136 135 143 151 143 139 137 139 151 150 147 143 147 151 158 160 156 163 180 202 198 199 209 194 173 164 156 169 169 185 204 203 175 207 202 195 257
255 251 257 267 277 282 272 252 177 137 147 133 127 128 129 134 131 130 124 127 134 139 140 144 147 152 160 167 169 181 187 208 204 197 219 189 177 173 166 180 180 189 205 212 188 217 212 195 218
254 267 268 264 275 279 276 273 251 160 159 144 135 123 113 88 100 120 125 126 124 130 141 143 151 158 165 170 184 189 192 197 192 209 209 203 196 173 176 189 189 195 200 213 212 211 210 209 218
258 257 267 275 274 276 277 280 65 111 95 75 73 81 94 113 104 93 90 100 116 123 130 130 140 146 155 171 182 184 195 195 201 215 191 193 195 202 201 197 198 207 208 207 216 229 221 219 221
273 269 263 267 273 277 279 282 45 61 78 71 63 65 64 100 89 86 88 87 88 89 101 126 135 152 163 163 159 178 193 192 197 204 197 198 200 213 208 202 208 215 210 207 213 233 235 234 231